EW2809 Weather Reports


time (UTC)temp
F
wind
direction
speed
knots
gust
knots
rain 1hr
in
rain 24hr
in
rain mn
in
humidity
%
barometer
mb
20260510142518 71 90 0.0 1.7 0.00 0.07 0.00 64 1013.1
20260510142017 70 90 0.0 0.9 0.00 0.07 0.00 70 1013.1
20260510141517 70 90 0.0 0.9 0.00 0.07 0.00 75 1013.0
20260510141017 69 0.0 0.0 0.00 0.07 0.00 70 1013.1
20260510140517 68 0.0 0.0 0.00 0.07 0.00 71 1013.1
20260510140037 68 90 0.0 0.9 0.00 0.07 0.00 73 1013.1
20260510135517 67 90 0.0 0.9 0.00 0.07 0.00 74 1013.1
20260510135038 67 90 0.0 0.9 0.00 0.07 0.00 75 1013.2
20260510134537 66 90 0.0 0.9 0.00 0.07 0.00 77 1013.3
20260510134017 65 90 0.0 0.9 0.00 0.07 0.00 83 1013.3
20260510133517 65 90 0.0 0.9 0.00 0.07 0.00 84 1013.4
20260510133018 64 0.0 0.0 0.00 0.07 0.00 86 1013.4
20260510132517 63 0.0 0.0 0.00 0.07 0.00 88 1013.4
20260510132017 63 90 0.0 0.9 0.00 0.07 0.00 90 1013.3
20260510131517 62 0.0 0.0 0.00 0.07 0.00 93 1013.3
20260510131017 61 90 0.0 0.9 0.00 0.07 0.00 94 1013.3
20260510130517 60 0.0 0.0 0.00 0.07 0.00 97 1013.3
20260510130018 59 0.0 0.0 0.00 0.07 0.00 98 1013.2
20260510125517 59 90 0.0 0.9 0.00 0.07 0.00 99 1013.4
20260510125017 58 0.0 0.0 0.00 0.07 0.00 99 1013.4
20260510124517 58 0.0 0.0 0.00 0.07 0.00 99 1013.6
20260510124017 57 0.0 0.0 0.00 0.07 0.00 99 1013.5
20260510123517 57 90 0.0 4.3 0.00 0.07 0.00 99 1013.5
20260510123017 56 0.0 0.0 0.00 0.07 0.00 99 1013.5
20260510122517 56 0.0 0.0 0.00 0.07 0.00 99 1013.5
20260510122017 55 0.0 0.0 0.00 0.07 0.00 99 1013.5
20260510121519 55 0.0 0.0 0.00 0.07 0.00 99 1013.5
20260510121017 54 0.0 0.0 0.00 0.07 0.00 99 1013.5
20260510120517 54 0.0 0.0 0.00 0.07 0.00 99 1013.5
20260510120037 53 0.0 0.0 0.00 0.07 0.00 99 1013.5
20260510115517 53 0.0 0.0 0.00 0.07 0.00 98 1013.4
20260510115039 52 0.0 0.0 0.00 0.07 0.00 98 1013.4
20260510114517 52 0.0 0.0 0.00 0.07 0.00 98 1013.3
20260510114017 51 0.0 0.0 0.00 0.07 0.00 98 1013.2
20260510113517 51 0.0 0.0 0.00 0.07 0.00 98 1013.1
20260510113017 51 0.0 0.0 0.00 0.07 0.00 98 1013.1
20260510112518 50 0.0 0.0 0.00 0.07 0.00 98 1013.0
20260510112017 50 0.0 0.0 0.00 0.07 0.00 98 1012.8
20260510111517 50 0.0 0.0 0.00 0.07 0.00 97 1012.8
20260510111017 50 0.0 0.0 0.00 0.07 0.00 97 1012.6
20260510110517 49 0.0 0.0 0.00 0.07 0.00 97 1012.5
20260510110017 49 0.0 0.0 0.00 0.07 0.00 97 1012.5
20260510105537 49 0.0 0.0 0.00 0.07 0.00 97 1012.3
20260510105017 49 0.0 0.0 0.00 0.07 0.00 97 1012.3
20260510104518 49 0.0 0.0 0.00 0.07 0.00 97 1012.4
20260510104017 49 0.0 0.0 0.00 0.07 0.00 97 1012.3
20260510103537 49 0.0 0.0 0.00 0.07 0.00 97 1012.0
20260510103037 49 0.0 0.0 0.00 0.07 0.00 97 1011.9
20260510102517 49 0.0 0.0 0.00 0.07 0.00 97 1011.9
20260510102018 49 0.0 0.0 0.00 0.07 0.00 97 1011.8
20260510101517 49 0.0 0.0 0.00 0.07 0.00 97 1011.8
20260510101017 50 0.0 0.0 0.00 0.07 0.00 97 1011.7
20260510100517 50 0.0 0.0 0.00 0.07 0.00 97 1011.6
20260510100016 50 0.0 0.0 0.00 0.07 0.00 97 1011.7
20260510095517 50 0.0 0.0 0.00 0.07 0.00 97 1011.6
20260510095017 50 0.0 0.0 0.00 0.07 0.00 97 1011.7
20260510094517 50 0.0 0.0 0.00 0.07 0.00 97 1011.6
20260510094037 50 0.0 0.0 0.00 0.07 0.00 97 1011.6
20260510093516 50 0.0 0.0 0.00 0.07 0.00 97 1011.6
20260510093016 50 0.0 0.0 0.00 0.07 0.00 97 1011.6
20260510092517 49 0.0 0.0 0.00 0.07 0.00 97 1011.7
20260510092018 50 0.0 0.0 0.00 0.07 0.00 97 1011.5
20260510091517 50 0.0 0.0 0.00 0.07 0.00 97 1011.5
20260510091017 50 0.0 0.0 0.00 0.07 0.00 97 1011.5
20260510090516 49 0.0 0.0 0.00 0.07 0.00 96 1011.4
20260510090017 50 0.0 0.0 0.00 0.07 0.00 97 1011.3
20260510085517 50 0.0 0.0 0.00 0.07 0.00 96 1011.4
20260510085037 50 0.0 0.0 0.00 0.07 0.00 96 1011.3
20260510084517 50 0.0 0.0 0.00 0.07 0.00 97 1011.3
20260510084037 50 0.0 0.0 0.00 0.07 0.00 97 1011.4
20260510083518 50 0.0 0.0 0.00 0.07 0.00 96 1011.3
20260510083016 50 0.0 0.0 0.00 0.07 0.00 96 1011.3
20260510082516 50 0.0 0.0 0.00 0.07 0.00 96 1011.3
20260510082016 50 0.0 0.0 0.00 0.07 0.00 96 1011.2
20260510081517 50 0.0 0.0 0.00 0.07 0.00 96 1011.2
20260510081038 50 0.0 0.0 0.00 0.07 0.00 96 1011.1
20260510080517 50 0.0 0.0 0.00 0.07 0.00 96 1011.1
20260510080016 50 0.0 0.0 0.00 0.07 0.00 96 1011.0
20260510075517 50 0.0 0.0 0.00 0.07 0.00 96 1010.8
20260510075017 50 0.0 0.0 0.00 0.07 0.00 96 1010.8
20260510074516 50 0.0 0.0 0.00 0.07 0.00 96 1010.7
20260510074016 51 0.0 0.0 0.00 0.07 0.00 96 1010.6
20260510073516 51 0.0 0.0 0.00 0.07 0.00 96 1010.5
20260510073017 51 0.0 0.0 0.00 0.07 0.00 96 1010.5
20260510072516 51 0.0 0.0 0.00 0.07 0.00 96 1010.5
20260510072017 51 0.0 0.0 0.00 0.07 0.00 96 1010.4
20260510071517 51 0.0 0.0 0.00 0.07 0.00 95 1010.4
20260510071016 51 0.0 0.0 0.00 0.07 0.00 95 1010.3
20260510070517 52 0.0 0.0 0.00 0.07 0.00 95 1010.4
20260510070016 52 0.0 0.0 0.00 0.07 0.00 95 1010.3
20260510065516 52 0.0 0.0 0.00 0.07 0.00 95 1010.3
20260510065036 52 0.0 0.0 0.00 0.07 0.00 95 1010.2
20260510064517 53 0.0 0.0 0.00 0.07 0.00 95 1010.1
20260510064016 53 0.0 0.0 0.00 0.07 0.00 96 1010.1
20260510063537 53 0.0 0.0 0.00 0.07 0.00 96 1010.0
20260510063017 53 0.0 0.0 0.00 0.07 0.00 96 1010.0
20260510062516 53 0.0 0.0 0.00 0.07 0.00 96 1010.1
20260510062016 53 0.0 0.0 0.00 0.07 0.00 96 1010.1
20260510061516 53 0.0 0.0 0.00 0.07 0.00 96 1010.2
20260510061017 53 0.0 0.0 0.00 0.07 0.00 95 1010.1
20260510060516 53 0.0 0.0 0.00 0.07 0.00 95 1010.1
20260510060037 53 0.0 0.0 0.00 0.07 0.00 95 1010.1
20260510055516 53 0.0 0.0 0.00 0.07 0.00 95 1010.1
20260510055016 53 0.0 0.0 0.00 0.07 0.00 94 1010.1
20260510054516 53 0.0 0.0 0.00 0.07 0.00 94 1010.2
20260510054016 53 0.0 0.0 0.00 0.07 0.00 94 1010.3
20260510053537 54 0.0 0.0 0.00 0.07 0.00 94 1010.3
20260510053016 54 0.0 0.0 0.00 0.07 0.00 94 1010.4
20260510052516 54 0.0 0.0 0.00 0.07 0.00 94 1010.2
20260510052016 54 0.0 0.0 0.00 0.07 0.00 93 1010.3
20260510051516 55 0.0 0.0 0.00 0.07 0.00 93 1010.3
20260510051037 55 0.0 0.0 0.00 0.07 0.00 93 1010.2
20260510050516 55 0.0 0.0 0.00 0.07 0.00 93 1010.2
20260510050016 55 0.0 0.0 0.00 0.07 0.00 93 1010.2
20260510045516 56 0.0 0.0 0.00 0.07 0.00 92 1010.2
20260510045016 56 0.0 0.0 0.00 0.07 0.00 92 1010.2
20260510044516 56 0.0 0.0 0.00 0.07 0.00 92 1010.3
20260510044016 56 0.0 0.0 0.00 0.07 0.00 92 1010.3
20260510043516 57 0.0 0.0 0.00 0.07 0.00 92 1010.3
20260510043037 57 0.0 0.0 0.00 0.07 0.00 92 1010.3
20260510042516 57 0.0 0.0 0.00 0.07 0.00 92 1010.3
20260510042016 57 0.0 0.0 0.00 0.07 0.00 91 1010.3
20260510041516 57 0.0 0.0 0.00 0.07 0.00 91 1010.2
20260510041016 57 0.0 0.0 0.00 0.07 0.00 91 1010.2
20260510040516 57 0.0 0.0 0.00 0.07 0.00 91 1010.2
20260510040016 57 0.0 0.0 0.00 0.07 0.00 91 1010.2
20260510035517 58 0.0 0.0 0.00 0.07 0.07 91 1010.1
20260510035016 58 0.0 0.0 0.00 0.07 0.07 90 1010.1
20260510034536 58 0.0 0.0 0.00 0.07 0.07 90 1010.1
20260510034016 58 0.0 0.0 0.00 0.07 0.07 90 1010.0
20260510033516 58 0.0 0.0 0.00 0.07 0.07 90 1010.1
20260510033016 58 0.0 0.0 0.00 0.07 0.07 89 1010.0
20260510032517 58 0.0 0.0 0.00 0.07 0.07 89 1010.0
20260510032016 59 0.0 0.0 0.00 0.07 0.07 89 1010.1
20260510031516 59 0.0 0.0 0.00 0.07 0.07 89 1010.1
20260510031016 59 0.0 0.0 0.00 0.07 0.07 89 1010.0
20260510030516 59 0.0 0.0 0.00 0.07 0.07 88 1010.1
20260510030016 59 0.0 0.0 0.00 0.07 0.07 88 1010.0
20260510025537 59 0.0 0.0 0.00 0.07 0.07 88 1010.0
20260510025016 59 0.0 0.0 0.00 0.07 0.07 88 1009.9
20260510024516 59 0.0 0.0 0.00 0.07 0.07 87 1010.0
20260510024016 59 0.0 0.0 0.00 0.07 0.07 87 1009.9
20260510023516 59 0.0 0.0 0.00 0.07 0.07 87 1009.9
20260510023016 60 0.0 0.0 0.00 0.07 0.07 86 1009.8
20260510022517 60 0.0 0.0 0.00 0.07 0.07 86 1009.7
20260510022036 60 0.0 0.0 0.00 0.07 0.07 86 1009.7
20260510021516 60 0.0 0.0 0.00 0.07 0.07 86 1009.8
20260510021016 60 0.0 0.0 0.00 0.07 0.07 86 1009.7
20260510020516 60 0.0 0.0 0.00 0.07 0.07 86 1009.7
20260510020016 60 0.0 0.0 0.00 0.07 0.07 86 1009.6
20260510015517 60 0.0 0.0 0.00 0.07 0.07 86 1009.6
20260510015016 60 0.0 0.0 0.00 0.07 0.07 86 1009.6
20260510014516 60 0.0 0.0 0.00 0.07 0.07 85 1009.6
20260510014016 60 0.0 0.0 0.00 0.07 0.07 85 1009.5
20260510013516 61 0.0 0.0 0.00 0.07 0.07 85 1009.4
20260510013017 61 0.0 0.0 0.00 0.07 0.07 84 1009.3
20260510012516 61 0.0 0.0 0.00 0.07 0.07 84 1009.1
20260510012036 61 0.0 0.0 0.00 0.07 0.07 84 1009.1
20260510011517 61 0.0 0.0 0.00 0.07 0.07 84 1009.0
20260510011036 61 0.0 0.0 0.00 0.07 0.07 83 1008.9
20260510010518 62 0.0 0.0 0.00 0.07 0.07 83 1008.9
20260510010016 62 0.0 0.0 0.00 0.07 0.07 83 1008.8
20260510005516 62 0.0 0.0 0.00 0.07 0.07 83 1008.8
20260510005016 62 0.0 0.0 0.00 0.07 0.07 82 1008.7
20260510004516 62 0.0 0.0 0.00 0.07 0.07 82 1008.7
20260510004016 63 0.0 0.0 0.00 0.07 0.07 82 1008.7
20260510003516 63 0.0 0.0 0.00 0.07 0.07 81 1008.6
20260510003036 63 0.0 0.0 0.00 0.07 0.07 81 1008.5
20260510002536 64 0.0 0.0 0.00 0.07 0.07 80 1008.5
20260510002017 64 0.0 0.0 0.00 0.07 0.07 80 1008.5
20260510001516 64 0.0 0.0 0.00 0.07 0.07 80 1008.5
20260510001016 65 0.0 0.0 0.00 0.07 0.07 79 1008.3
20260510000516 65 0.0 0.0 0.00 0.07 0.07 78 1008.4
20260510000015 65 0.0 0.0 0.00 0.07 0.07 77 1008.4
20260509235516 66 0.0 0.0 0.00 0.07 0.07 77 1008.4
20260509235016 66 0.0 0.0 0.00 0.07 0.07 75 1008.3
20260509234516 67 0.0 0.0 0.00 0.07 0.07 74 1008.2
20260509234016 67 0.0 0.0 0.00 0.07 0.07 73 1008.2
20260509233516 67 0.0 0.0 0.00 0.07 0.07 71 1008.1
20260509233056 68 0.0 0.0 0.00 0.07 0.07 70 1008.0
20260509232516 68 0.0 0.0 0.00 0.07 0.07 70 1008.1
20260509232036 68 0.0 0.0 0.00 0.07 0.07 72 1008.0
20260509231516 68 0.0 0.0 0.00 0.07 0.07 71 1008.0
20260509231016 68 0.0 0.0 0.00 0.07 0.07 70 1008.0
20260509230515 68 0.0 0.0 0.00 0.07 0.07 71 1008.0
20260509230015 69 0.0 0.0 0.00 0.07 0.07 69 1008.0
20260509225556 69 0.0 0.0 0.00 0.07 0.07 69 1008.0
20260509225017 69 0.0 0.0 0.00 0.07 0.07 66 1008.0
20260509224515 69 0.0 0.0 0.00 0.07 0.07 65 1007.9
20260509224016 69 90 0.0 0.9 0.00 0.07 0.07 66 1007.9
20260509223516 69 90 0.0 0.9 0.00 0.07 0.07 66 1007.9
20260509223036 69 0.0 0.0 0.00 0.07 0.07 65 1008.0
20260509222516 69 0.0 0.0 0.00 0.07 0.07 67 1008.0
20260509222036 70 0.0 0.0 0.00 0.07 0.07 66 1008.1
20260509221516 70 0.0 0.0 0.00 0.07 0.07 68 1008.0
20260509221015 70 90 0.0 0.9 0.00 0.07 0.07 68 1008.0
20260509220536 70 90 0.0 1.7 0.00 0.07 0.07 70 1008.0
20260509220016 70 0.0 0.0 0.00 0.07 0.07 67 1008.0
20260509215515 71 0.0 0.0 0.00 0.07 0.07 67 1008.1
20260509215016 71 90 0.0 0.9 0.00 0.07 0.07 63 1008.1
20260509214516 71 90 0.0 0.9 0.00 0.07 0.07 63 1007.9
20260509214016 72 90 0.0 0.9 0.00 0.07 0.07 64 1007.9
20260509213515 72 90 0.0 0.9 0.00 0.07 0.07 65 1008.0
20260509213016 72 90 0.0 1.7 0.00 0.07 0.07 67 1008.0
20260509212516 72 90 0.0 2.6 0.00 0.07 0.07 65 1008.0
20260509212015 71 90 0.0 0.9 0.00 0.07 0.07 68 1008.0
20260509211516 72 90 0.0 1.7 0.00 0.07 0.07 68 1008.0
20260509211016 72 90 0.0 1.7 0.00 0.07 0.07 67 1008.0
20260509210515 72 90 0.0 0.9 0.00 0.07 0.07 68 1008.0
20260509210015 71 90 0.0 0.9 0.00 0.07 0.07 66 1008.0
20260509205515 71 90 0.0 0.9 0.00 0.07 0.07 67 1008.0
20260509205015 71 90 0.0 1.7 0.00 0.07 0.07 68 1008.0
20260509204516 71 90 0.0 2.6 0.00 0.07 0.07 69 1007.9
20260509204056 71 90 0.0 0.9 0.00 0.07 0.07 67 1007.9
20260509203535 71 90 0.0 1.7 0.00 0.07 0.07 71 1007.8
20260509203015 71 90 0.0 4.3 0.00 0.07 0.07 68 1007.7
20260509202515 71 90 0.0 0.9 0.00 0.07 0.07 69 1007.7
20260509202016 71 90 0.0 1.7 0.00 0.07 0.07 72 1007.8
20260509201515 72 90 0.0 1.7 0.00 0.07 0.07 72 1007.9
20260509201035 73 90 0.0 0.9 0.00 0.07 0.07 73 1008.2
20260509200616 73 90 0.0 0.9 0.00 0.07 0.07 72 1008.2
20260509200015 73 90 0.0 0.9 0.00 0.07 0.07 72 1008.2
20260509195535 72 90 0.0 0.9 0.00 0.07 0.07 73 1008.4
20260509195035 72 90 0.0 1.7 0.00 0.07 0.07 70 1008.5
20260509194515 72 90 0.0 1.7 0.00 0.07 0.07 74 1008.5
20260509194035 71 90 0.0 0.9 0.00 0.07 0.07 80 1008.7
20260509193516 70 90 0.0 0.9 0.00 0.07 0.07 80 1008.8
20260509193015 69 90 0.0 0.9 0.00 0.07 0.07 74 1008.9
20260509192515 69 90 0.0 1.7 0.01 0.07 0.07 74 1009.0
20260509192015 69 0.0 0.0 0.02 0.07 0.07 78 1009.1
20260509191515 68 90 0.0 0.9 0.06 0.07 0.07 79 1009.1
20260509191016 67 90 0.0 0.9 0.07 0.07 0.07 81 1009.1
20260509190516 66 90 0.0 0.9 0.07 0.07 0.07 83 1009.0
20260509190035 66 90 0.0 0.9 0.07 0.07 0.07 87 1008.9
20260509185535 65 90 0.0 0.9 0.07 0.07 0.07 86 1009.0
20260509185035 65 90 0.0 0.9 0.07 0.07 0.07 85 1009.2
20260509184517 64 90 0.0 1.7 0.07 0.07 0.07 87 1009.1
20260509184017 64 90 0.0 0.9 0.07 0.07 0.07 91 1009.3
20260509183517 64 90 0.0 1.7 0.07 0.07 0.07 91 1009.1
20260509183018 63 0.0 0.0 0.07 0.07 0.07 88 1009.4
20260509182517 63 0.0 0.0 0.06 0.06 0.06 85 1009.5
20260509182015 64 0.0 0.0 0.06 0.06 0.06 81 1009.5
20260509181517 65 90 0.0 0.9 0.02 0.02 0.02 78 1009.7
20260509181018 66 0.0 0.0 0.00 0.00 0.00 76 1009.7
20260509180517 66 0.0 0.0 0.00 0.00 0.00 72 1009.7
20260509180017 66 90 0.0 0.9 0.00 0.00 0.00 72 1009.8
20260509175537 66 90 0.0 1.7 0.00 0.00 0.00 71 1010.0
20260509175037 67 90 0.0 0.9 0.00 0.00 0.00 71 1010.0
20260509174517 68 0.0 0.0 0.00 0.00 0.00 69 1009.9
20260509174017 69 90 0.0 0.9 0.00 0.00 0.00 67 1009.9
20260509173517 69 0.0 0.0 0.00 0.00 0.00 69 1010.0
20260509173018 69 90 0.0 0.9 0.00 0.00 0.00 71 1009.9
20260509172518 69 90 0.0 0.9 0.00 0.00 0.00 70 1009.9
20260509172017 69 90 0.0 0.9 0.00 0.00 0.00 68 1010.0
20260509171517 69 90 0.0 0.9 0.00 0.00 0.00 69 1010.2
20260509171018 69 90 0.0 2.6 0.00 0.00 0.00 66 1010.1
20260509170517 68 90 0.0 2.6 0.00 0.00 0.00 69 1010.2
20260509170017 68 90 0.0 0.9 0.00 0.00 0.00 67 1010.2
20260509165517 67 90 0.0 1.7 0.00 0.00 0.00 73 1010.2
20260509165037 67 90 0.0 0.9 0.00 0.00 0.00 68 1010.4
20260509164517 67 90 0.0 1.7 0.00 0.00 0.00 66 1010.3
20260509164017 67 90 0.0 1.7 0.00 0.00 0.00 68 1010.3
20260509163517 67 90 0.9 2.6 0.00 0.00 0.00 66 1010.2
20260509163018 67 90 0.9 2.6 0.00 0.00 0.00 67 1010.4
20260509162517 68 90 0.9 2.6 0.00 0.00 0.00 67 1010.4
20260509162017 68 90 0.9 2.6 0.00 0.00 0.00 66 1010.3
20260509161517 68 90 0.0 1.7 0.00 0.00 0.00 65 1010.4
20260509161017 69 90 0.0 1.7 0.00 0.00 0.00 64 1010.5
20260509160517 69 90 0.9 1.7 0.00 0.00 0.00 64 1010.3
20260509160038 69 90 0.9 2.6 0.00 0.00 0.00 63 1010.5
20260509155517 70 90 0.9 1.7 0.00 0.00 0.00 64 1010.5
20260509155017 70 90 0.9 2.6 0.00 0.00 0.00 64 1010.6
20260509154517 71 90 0.9 3.5 0.00 0.00 0.00 60 1010.6
20260509154017 71 90 0.9 3.5 0.00 0.00 0.00 62 1010.6
20260509153517 70 90 0.9 2.6 0.00 0.00 0.00 66 1010.7
20260509153018 70 90 0.0 1.7 0.00 0.00 0.00 64 1010.7
20260509152517 69 90 0.0 2.6 0.00 0.00 0.00 67 1010.7
20260509152037 69 90 0.0 0.9 0.00 0.00 0.00 70 1010.8
20260509151517 68 90 0.0 0.9 0.00 0.00 0.00 69 1010.8
20260509151018 67 90 0.0 1.7 0.00 0.00 0.00 68 1010.9
20260509150517 66 90 0.0 0.9 0.00 0.00 0.00 68 1011.0
20260509150017 66 90 0.0 1.7 0.00 0.00 0.00 68 1011.1
20260509145517 65 90 0.0 2.6 0.00 0.00 0.00 69 1011.2
20260509145017 64 90 0.0 1.7 0.00 0.00 0.00 68 1011.3
20260509144517 64 90 0.0 0.9 0.00 0.00 0.00 70 1011.3
20260509144038 63 90 0.0 0.9 0.00 0.00 0.00 72 1011.4
20260509143517 62 90 0.0 0.9 0.00 0.00 0.00 72 1011.5
20260509143017 62 0.0 0.0 0.00 0.00 0.00 73 1011.6